IZ1HKE-13 Weather Reports


Display with metric or nautical units.
time (UTC)temp
F
wind
direction
speed
MPH
gust
MPH
rain 1hr
in
rain 24hr
in
rain mn
in
humidity
%
barometer
mb
20260507111658 72 213 9.0 9.0 0.00 0.00 0.00 48 1019.9
20260507110530 71 132 3.0 4.0 0.00 0.00 0.00 48 1020.1
20260507105403 74 210 5.0 5.0 0.00 0.00 0.00 50 1020.1
20260507104210 69 144 4.0 5.0 0.00 0.00 0.00 56 1020.2
20260507103043 69 193 2.0 6.0 0.00 0.00 0.00 56 1020.4
20260507101915 66 192 6.0 11.0 0.00 0.00 0.00 60 1020.5
20260507100747 65 195 8.0 10.0 0.00 0.00 0.00 62 1020.6
20260507095620 67 132 4.0 6.0 0.00 0.00 0.00 63 1020.6
20260507094452 66 201 1.0 3.0 0.00 0.00 0.00 65 1020.6
20260507093324 63 126 0.0 5.0 0.00 0.00 0.00 70 1020.7
20260507092157 63 207 0.0 5.0 0.00 0.00 0.00 69 1020.6
20260507091029 62 198 6.0 7.0 0.00 0.00 0.00 74 1020.6
20260507085902 61 190 5.0 7.0 0.00 0.00 0.00 77 1020.6
20260507084734 62 246 2.0 3.0 0.00 0.00 0.00 76 1020.5
20260507083607 62 342 2.0 3.0 0.00 0.00 0.00 77 1020.5
20260507082440 61 207 0.0 1.0 0.00 0.00 0.00 77 1020.5
20260507081312 61 342 0.0 0.0 0.00 0.00 0.00 78 1020.4
20260507080145 60 344 0.0 1.0 0.00 0.00 0.00 79 1020.3
20260507075017 60 345 0.0 3.0 0.00 0.00 0.00 80 1020.2
20260507073850 60 333 0.0 4.0 0.00 0.00 0.00 82 1020.1
20260507072722 60 174 0.0 0.0 0.00 0.00 0.00 84 1020.3
20260507071555 60 209 0.0 0.0 0.00 0.00 0.00 82 1020.2
20260507070427 59 323 0.0 2.0 0.00 0.00 0.00 85 1020.0
20260507065300 58 123 1.0 3.0 0.00 0.00 0.00 86 1019.9
20260507064132 57 126 0.0 0.0 0.00 0.00 0.00 87 1019.9
20260507063005 54 125 0.0 0.0 0.00 0.00 0.00 92 1019.8
20260507061837 53 126 0.0 0.0 0.00 0.00 0.00 93 1019.6
20260507060710 53 126 0.0 0.0 0.00 0.00 0.00 95 1019.6
20260507055542 52 126 0.0 0.0 0.00 0.00 0.00 95 1019.6
20260507054415 52 121 0.0 0.0 0.00 0.00 0.00 95 1019.5
20260507053247 51 122 0.0 0.0 0.00 0.00 0.00 96 1019.3
20260507052120 51 128 0.0 0.0 0.00 0.00 0.00 97 1019.2
20260507050952 50 126 0.0 0.0 0.00 0.00 0.00 97 1019.2
20260507045825 50 84 0.0 0.0 0.00 0.00 0.00 98 1018.9
20260507044657 50 130 0.0 0.0 0.00 0.00 0.00 99 1018.9
20260507043530 49 124 0.0 0.0 0.00 0.00 0.00 99 1018.8
20260507042402 49 121 0.0 0.0 0.00 0.00 0.00 99 1018.6
20260507041235 49 124 0.0 0.0 0.00 0.00 0.00 98 1018.5
20260507040107 49 69 0.0 0.0 0.00 0.00 0.00 98 1018.4
20260507034927 49 113 0.0 0.0 0.00 0.00 0.00 98 1018.3
20260507033800 50 143 0.0 0.0 0.00 0.00 0.00 98 1018.2
20260507032633 50 144 0.0 3.0 0.00 0.00 0.00 97 1018.1
20260507031505 50 165 0.0 0.0 0.00 0.00 0.00 96 1018.0
20260507030337 51 171 0.0 0.0 0.00 0.00 0.00 95 1018.1
20260507025210 53 318 0.0 4.0 0.00 0.00 0.00 93 1018.0
20260507024042 51 306 0.0 2.0 0.00 0.00 0.00 94 1018.0
20260507022915 52 127 0.0 4.0 0.00 0.00 0.00 94 1017.7
20260507021748 52 84 2.0 5.0 0.00 0.00 0.00 94 1017.6
20260507020620 51 140 3.0 3.0 0.00 0.00 0.00 95 1017.6
20260507015452 51 191 0.0 4.0 0.00 0.00 0.00 95 1017.5
20260507014325 52 125 0.0 0.0 0.00 0.00 0.00 95 1017.4
20260507013157 53 48 0.0 0.0 0.00 0.00 0.00 92 1017.5
20260507012030 53 132 0.0 0.0 0.00 0.00 0.00 94 1017.4
20260507010902 53 132 0.0 0.0 0.00 0.00 0.00 93 1017.5
20260507005735 53 132 0.0 0.0 0.00 0.00 0.00 92 1017.7
20260507004607 53 132 0.0 2.0 0.00 0.00 0.00 92 1017.8
20260507003440 54 131 0.0 0.0 0.00 0.00 0.00 90 1017.8
20260507002312 55 339 0.0 0.0 0.00 0.00 0.00 89 1017.7
20260507001145 56 18 2.0 3.0 0.00 0.00 0.00 85 1017.7
20260507000017 55 342 2.0 2.0 0.00 0.00 0.00 84 1017.5
20260506234850 55 350 0.0 4.0 0.00 0.00 0.00 84 1017.5
20260506233722 55 348 3.0 5.0 0.00 0.00 0.00 85 1017.5
20260506232555 56 357 0.0 1.0 0.00 0.00 0.00 83 1017.4
20260506231427 57 204 0.0 3.0 0.00 0.00 0.00 82 1017.2
20260506230300 56 72 0.0 3.0 0.00 0.00 0.00 82 1017.1
20260506225132 57 354 0.0 2.0 0.00 0.00 0.30 81 1016.9
20260506224005 58 354 0.0 4.0 0.00 0.00 0.30 77 1016.8
20260506222837 58 348 3.0 4.0 0.00 0.00 0.30 77 1016.8
20260506221710 60 79 0.0 4.0 0.00 0.00 0.30 74 1016.7
20260506220529 60 222 3.0 7.0 0.00 0.00 0.30 74 1016.7
20260506215402 60 198 1.0 10.0 0.00 0.00 0.30 72 1016.7
20260506214234 60 154 0.0 14.0 0.00 0.00 0.30 72 1016.5
20260506213107 60 202 3.0 12.0 0.00 0.00 0.30 72 1016.1
20260506211939 60 174 7.0 13.0 0.00 0.00 0.30 72 1015.9
20260506210812 60 186 9.0 20.0 0.00 0.00 0.30 71 1015.9
20260506205645 61 132 9.0 16.0 0.00 0.00 0.30 70 1015.9
20260506204517 61 144 13.0 15.0 0.00 0.00 0.30 70 1016.0
20260506203337 61 201 5.0 13.0 0.00 0.00 0.30 70 1015.9
20260506202210 61 180 9.0 12.0 0.00 0.00 0.30 71 1016.0
20260506201042 60 220 4.0 9.0 0.00 0.00 0.30 72 1015.8
20260506195914 60 174 11.0 12.0 0.00 0.00 0.30 72 1015.7
20260506194746 61 226 6.0 19.0 0.00 0.00 0.30 71 1015.5
20260506193619 61 202 7.0 14.0 0.00 0.00 0.30 71 1015.3
20260506192451 61 77 12.0 14.0 0.00 0.00 0.30 70 1015.2
20260506191323 61 162 5.0 17.0 0.00 0.00 0.30 70 1015.0
20260506190156 61 132 7.0 18.0 0.00 0.00 0.30 70 1015.0
20260506185029 61 160 8.0 17.0 0.00 0.00 0.30 70 1014.9
20260506183901 61 210 7.0 19.0 0.00 0.00 0.30 71 1014.6
20260506182733 61 192 10.0 17.0 0.00 0.00 0.30 70 1014.5
20260506181606 61 168 9.0 23.0 0.00 0.00 0.30 70 1014.2
20260506180439 62 207 7.0 27.0 0.00 0.00 0.30 70 1014.1
20260506175311 62 90 7.0 20.0 0.00 0.00 0.30 70 1013.8
20260506174144 62 120 15.0 19.0 0.00 0.00 0.30 70 1013.7
20260506173016 62 196 13.0 23.0 0.00 0.00 0.30 68 1013.5
20260506171849 63 210 22.0 26.0 0.00 0.00 0.30 68 1013.2
20260506170709 63 175 13.0 23.0 0.00 0.00 0.30 67 1013.2
20260506165541 62 210 5.0 14.0 0.00 0.00 0.30 66 1013.1
20260506164414 63 269 12.0 15.0 0.00 0.00 0.30 65 1013.3
20260506163246 64 214 15.0 22.0 0.00 0.00 0.30 65 1013.2
20260506162119 64 204 13.0 20.0 0.00 0.00 0.30 63 1013.1
20260506160951 64 204 7.0 29.0 0.00 0.00 0.30 63 1013.1
20260506155824 66 144 10.0 17.0 0.00 0.00 0.30 60 1013.2
20260506154644 66 138 5.0 16.0 0.00 0.00 0.30 59 1013.1
20260506153516 66 188 11.0 18.0 0.00 0.00 0.30 59 1013.1
20260506152349 66 150 9.0 16.0 0.00 0.00 0.30 60 1012.9
20260506151221 66 180 7.0 20.0 0.00 0.00 0.30 59 1012.9
20260506150054 65 221 18.0 22.0 0.00 0.00 0.30 60 1013.1
20260506144926 66 226 14.0 19.0 0.00 0.00 0.30 58 1013.2
20260506143759 66 246 4.0 23.0 0.00 0.00 0.30 57 1013.4
20260506142631 65 120 16.0 21.0 0.00 0.00 0.30 58 1013.5
20260506141504 66 204 9.0 24.0 0.00 0.00 0.30 57 1013.4
20260506140336 66 222 15.0 27.0 0.00 0.00 0.30 57 1013.5
20260506135209 67 96 10.0 22.0 0.00 0.00 0.30 58 1013.6
20260506134041 66 186 20.0 27.0 0.00 0.00 0.30 60 1013.7
20260506132914 66 187 5.0 20.0 0.00 0.00 0.30 61 1013.7
20260506131746 66 181 25.0 29.0 0.00 0.00 0.30 59 1013.6
20260506130606 67 205 9.0 22.0 0.00 0.00 0.30 58 1013.6
20260506125439 67 182 12.0 15.0 0.00 0.00 0.30 56 1013.6
20260506124311 68 114 11.0 21.0 0.00 0.00 0.30 59 1013.7
20260506123144 68 224 14.0 15.0 0.00 0.00 0.30 58 1013.6
20260506122016 67 95 9.0 23.0 0.00 0.00 0.30 60 1013.7
20260506120849 68 186 8.0 17.0 0.00 0.00 0.30 61 1013.5
20260506115721 68 95 9.0 19.0 0.00 0.00 0.30 58 1013.5
20260506114554 67 115 10.0 18.0 0.00 0.00 0.30 58 1013.6
20260506113426 67 154 10.0 22.0 0.00 0.00 0.30 59 1013.7